星链-5344 (STARLINK-5344 )

导读

STARLINK-5344是美国SpaceX公司星链(Starlink)卫星互联网星座计划的组网卫星,于北京时间2023年2月2日发射。作为星链低轨互联网星座的组成部分,它运行在近地轨道,服务于全球高速低延迟宽带互联网覆盖,可服务偏远地区联网、通信备份等场景,是SpaceX构建天基通信网络的一环,助力全球无缝互联的同时,也参与支撑星链星座的扩容与服务迭代。

Basic Information
目录编号:
55494
目录名称:
STARLINK-5344
国际标识:
2023-015AX
轨道中心:
EARTH
卫星名称:
星链-5344
卫星全名:
星链-5344 (STARLINK-5344 )
卫星状态:
在轨 (已飞行1231 天)
发射日期:
2023-02-02 UTC
国别 :
美国 (US)
星等 :
--
Orbit Information
数据来源 国际轨道数据 AOE轨道数据
星历时间 2026-06-17T12:54:41+0800
6小时前
查看轨道信息
2026-06-15T00:00:00+0800
2天前
查看轨道信息
半长轴 6861.204km 6861.222km
偏心率 0.0001152 0.0001346
轨道倾角 43.002° 43.000°
近地点辐角 272.878° 256.306°
升交点赤经 137.815° 152.152°
平近点角 87.194° 170.382°
近地点 482.276km 482.161km
远地点 483.858km 484.009km
周期 94.267分钟 94.267分钟
每日圈数 15.275743 15.275683
Detailed Information
固有亮度:
5
最大亮度:
2.5
卫星平台:
Starlink v1.5
覆盖范围:
全球
运营商:
太空探索技术公司
运营商所在国:
美国
制造商(研发单位):
太空探索技术公司
制造商所在国:
美国
使用方式:
暂无
Satellite Introduction
星链(Starlink)计划是由太空探索技术公司(SpaceX)提出的一个巨型低轨卫星互联网星座项目,计划在2019年至2024年间在太空搭建由约1.2万颗卫星组成的“星链”网络,其中1584颗将部署在地球上空550千米处的近地轨道,并从2020年开始工作。该卫星仍在工作。
2D Orbit Map
3D Orbit Map
Orbit Altitude Analysis Chart
Orbit Inclination Analysis Chart
Orbit Comprehensive Analysis Chart
View Comprehensive Chart